This is the latest recevied weather packets stored in our database for station/object N0NAI-13. If no packets are shown the sender has not sent any weather packets the latest 10 day(s).
| Time | Temp. | Humidity | Pressure | Rain* | Wind** | Luminosity | Snow |
|---|---|---|---|---|---|---|---|
| 1777736116 | 15° C | 39% | 1021.1 hPa | 0 mm | - | - | - |
| 1777735519 | 14.44° C | 40% | 1021 hPa | 0 mm | - | - | - |
| 1777734922 | 14.44° C | 42% | 1021 hPa | 0 mm | - | - | - |
| 1777734325 | 13.89° C | 41% | 1021.2 hPa | 0 mm | - | - | - |
| 1777733728 | 13.33° C | 44% | 1021.2 hPa | 0 mm | - | - | - |
| 1777733131 | 13.33° C | 47% | 1021.3 hPa | 0 mm | - | - | - |
| 1777732515 | 12.22° C | 49% | 1021.4 hPa | 0 mm | - | - | - |
| 1777731918 | 11.67° C | 53% | 1021.5 hPa | 0 mm | - | - | - |
| 1777731321 | 10.56° C | 53% | 1021.5 hPa | 0 mm | - | - | - |
| 1777730723 | 9.44° C | 58% | 1021.7 hPa | 0 mm | - | - | - |
| 1777730126 | 8.89° C | 62% | 1021.5 hPa | 0 mm | - | - | - |
| 1777729528 | 7.22° C | 68% | 1021.6 hPa | 0 mm | - | - | - |
| 1777728931 | 6.11° C | 73% | 1021.7 hPa | 0 mm | - | - | - |
| 1777728316 | 5° C | 76% | 1021.7 hPa | 0 mm | - | - | - |
| 1777727720 | 3.33° C | 89% | 1021.7 hPa | 0 mm | - | - | - |
| 1777727122 | 1.67° C | 99% | 1021.7 hPa | 0 mm | - | - | - |
| 1777726519 | 0.56° C | 99% | 1021.9 hPa | 0 mm | - | - | - |
| 1777725916 | -0.56° C | 99% | 1021.8 hPa | 0 mm | - | - | - |
| 1777725331 | -1.11° C | 99% | 1021.7 hPa | 0 mm | - | - | - |
| 1777724716 | -1.67° C | 99% | 1021.7 hPa | 0 mm | - | - | - |
| 1777724119 | -2.22° C | 99% | 1021.9 hPa | 0 mm | - | - | - |
| 1777723522 | -2.78° C | 99% | 1021.7 hPa | 0 mm | - | - | - |
| 1777722925 | -2.78° C | 99% | 1021.7 hPa | 0 mm | - | - | - |
| 1777721731 | -3.33° C | 99% | 1021.5 hPa | 0 mm | - | - | - |
| 1777721116 | -3.33° C | 99% | 1021.5 hPa | 0 mm | - | - | - |
* Rain latest hour (hover to see other rain measurements)
** Current wind speed in m/s (hover to see current wind gust speed)